This is the latest recevied weather packets stored in our database for station/object N8QF. If no packets are shown the sender has not sent any weather packets the latest 10 day(s).
| Time | Temp. | Humidity | Pressure | Rain* | Wind** | Luminosity | Snow |
|---|---|---|---|---|---|---|---|
| 1777474383 | 13.33° C | 94% | 1009.4 hPa | 8.64 mm | - | - | - |
| 1777474083 | 13.33° C | 94% | 1009.3 hPa | 8.64 mm | - | - | - |
| 1777473782 | 13.33° C | 94% | 1009.1 hPa | 8.38 mm | - | - | - |
| 1777473482 | 13.33° C | 94% | 1009.2 hPa | 8.13 mm | - | - | - |
| 1777473182 | 12.78° C | 94% | 1009.5 hPa | 7.87 mm | - | - | - |
| 1777472882 | 13.33° C | 94% | 1009.5 hPa | 7.37 mm | - | - | - |
| 1777472581 | 13.33° C | 94% | 1009.4 hPa | 7.11 mm | - | - | - |
| 1777472281 | 13.33° C | 94% | 1009.1 hPa | 7.11 mm | - | - | - |
| 1777471981 | 13.33° C | 94% | 1009.1 hPa | 6.6 mm | - | - | - |
| 1777471681 | 13.33° C | 94% | 1009.3 hPa | 6.1 mm | - | - | - |
| 1777471381 | 13.33° C | 94% | 1009.3 hPa | 5.59 mm | - | - | - |
| 1777471080 | 13.33° C | 94% | 1009.4 hPa | 5.08 mm | - | - | - |
| 1777470780 | 13.33° C | 94% | 1009.3 hPa | 4.57 mm | - | - | - |
| 1777470480 | 13.33° C | 94% | 1009.2 hPa | 4.32 mm | - | - | - |
| 1777470180 | 13.33° C | 94% | 1009.2 hPa | 4.32 mm | - | - | - |
| 1777469877 | 13.33° C | 94% | 1009.3 hPa | 4.32 mm | - | - | - |
| 1777469577 | 13.33° C | 94% | 1009.6 hPa | 4.06 mm | - | - | - |
| 1777469275 | 13.33° C | 94% | 1009.5 hPa | 3.81 mm | - | - | - |
| 1777468974 | 13.33° C | 94% | 1009.5 hPa | 3.81 mm | - | - | - |
| 1777468671 | 13.33° C | 93% | 1009.5 hPa | 3.81 mm | - | - | - |
| 1777468371 | 13.33° C | 94% | 1009.7 hPa | 3.81 mm | - | - | - |
| 1777468070 | 13.33° C | 94% | 1009.7 hPa | 3.81 mm | - | - | - |
| 1777467770 | 13.33° C | 94% | 1009.7 hPa | 3.81 mm | - | - | - |
| 1777467470 | 13.33° C | 94% | 1009.9 hPa | 3.81 mm | - | - | - |
| 1777467169 | 13.33° C | 94% | 1009.9 hPa | 3.81 mm | - | - | - |
* Rain since midnight (hover to see other rain measurements)
** Current wind speed in m/s (hover to see current wind gust speed)